Martha's Vineyard, MA

6:48 AM EDT on May 29, 2017 (GMT -0400)
Martha's Vineyard

Weather History for KMVY - April, 2013

Change the Weather History Date:

Wednesday, April 24, 2013

  Actual Average Record
Temperature  
Mean Temperature 50 °F -  
Max Temperature 57 °F 57 °F 80 °F (1952)
Min Temperature 44 °F 40 °F 27 °F (2003)
Degree Days  
Heating Degree Days 16    
Moisture  
Dew Point 45 °F    
Average Humidity 85    
Maximum Humidity 100    
Minimum Humidity 67    
Precipitation  
Precipitation 0.22 in - - ()
Sea Level Pressure  
Sea Level Pressure 29.93 in    
Wind  
Wind Speed 17 mph (WSW)    
Max Wind Speed 26 mph    
Max Gust Speed 36 mph    
Visibility 10 miles    
Events Rain    
Averages and records for this station are not official NWS values.
T = Trace of Precipitation, MM = Missing Value Source: NWS Daily Summary

Daily Weather History Graph

Daily Weather History Graph

Search for Another Location

Airport or City:

Trip Planner

Search our weather history database for the weather conditions in past years. The results will help you decide how hot, cold, wet, or windy it might be!

Date:

Astronomy

Apr. 24, 2013 Rise Set
Actual Time 5:49 AM EDT 7:32 PM EDT
Civil Twilight 5:19 AM EDT 8:02 PM EDT
Nautical Twilight 4:43 AM EDT 8:38 PM EDT
Astronomical Twilight 4:05 AM EDT 9:16 PM EDT
Moon 6:32 PM EDT (4/24) 4:51 AM EDT (4/24)
Length of Visible Light 14h 42m
Length of Day
13h 43m
Waxing Gibbous, 98% of the Moon is Illuminated
Apr 24
Waxing Gibbous
Apr 25
Full
May 2
Last Quarter
May 9
New
May 18
First Quarter

Hourly Weather History & Observations

Time (EDT) Temp. Windchill Dew Point Humidity Pressure Visibility Wind Dir Wind Speed Gust Speed Precip Events Conditions
12:53 AM 44.1 °F 35.7 °F 44.1 °F 100% 29.93 in 8.0 mi North 20.7 mph 29.9 mph 0.14 in Rain Rain
1:53 AM 44.1 °F 35.9 °F - N/A% 29.87 in 10.0 mi North 19.6 mph 32.2 mph 0.05 in Rain Light Rain
2:53 AM 44.1 °F 34.6 °F - N/A% 29.84 in 10.0 mi North 26.5 mph 35.7 mph 0.03 in   Overcast
3:53 AM 45.0 °F 37.6 °F - N/A% 29.83 in 10.0 mi North 17.3 mph 27.6 mph 0.00 in   Overcast
4:53 AM 44.1 °F 35.9 °F 43.0 °F 96% 29.86 in 10.0 mi NNW 19.6 mph 32.2 mph 0.00 in Rain Light Rain
6:53 AM 45.0 °F 37.4 °F 43.0 °F 93% 29.89 in 10.0 mi NNW 18.4 mph 28.8 mph 0.00 in   Overcast
7:53 AM 45.0 °F 38.9 °F 43.0 °F 93% 29.92 in 10.0 mi NNW 12.7 mph 23.0 mph N/A   Overcast
8:53 AM 46.0 °F 41.0 °F 43.0 °F 89% 29.95 in 10.0 mi NW 10.4 mph 20.7 mph N/A   Overcast
9:15 AM 46.4 °F 40.4 °F 42.8 °F 87% 29.95 in 10.0 mi NW 13.8 mph 19.6 mph N/A   Overcast
9:53 AM 48.0 °F - 44.1 °F 86% 29.96 in 10.0 mi WNW 12.7 mph 19.6 mph N/A   Overcast
10:53 AM 52.0 °F - 45.0 °F 77% 29.94 in 10.0 mi WNW 11.5 mph - N/A   Overcast
11:53 AM 53.1 °F - 44.1 °F 71% 29.95 in 10.0 mi West 11.5 mph 19.6 mph N/A   Mostly Cloudy
12:46 PM 55.4 °F - 44.6 °F 67% 29.95 in 10.0 mi WSW 15.0 mph 19.6 mph N/A   Overcast
12:53 PM 54.0 °F - 44.1 °F 69% 29.95 in 10.0 mi West 11.5 mph 19.6 mph N/A   Mostly Cloudy
1:15 PM 55.4 °F - 44.6 °F 67% 29.94 in 10.0 mi Variable 6.9 mph 17.3 mph N/A   Scattered Clouds
1:53 PM 55.9 °F - 45.0 °F 67% 29.93 in 10.0 mi SSW 15.0 mph - N/A   Clear
2:53 PM 53.1 °F - 44.1 °F 71% 29.93 in 10.0 mi SW 19.6 mph - N/A   Clear
3:53 PM 53.1 °F - 44.1 °F 71% 29.93 in 10.0 mi SW 18.4 mph 25.3 mph N/A   Clear
4:53 PM 51.1 °F - 43.0 °F 74% 29.94 in 10.0 mi SW 17.3 mph 28.8 mph N/A   Clear
5:53 PM 50.0 °F - 44.1 °F 80% 29.94 in 10.0 mi SW 13.8 mph 23.0 mph N/A   Clear
6:53 PM 48.9 °F - 45.0 °F 86% 29.95 in 10.0 mi SW 17.3 mph 24.2 mph N/A   Clear
7:46 PM 48.2 °F - 44.6 °F 87% 29.96 in 10.0 mi SSW 16.1 mph 21.9 mph N/A   Partly Cloudy
7:53 PM 48.0 °F - 45.0 °F 89% 29.96 in 10.0 mi SSW 16.1 mph - N/A   Scattered Clouds
8:01 PM 48.2 °F - 46.4 °F 93% 29.95 in 10.0 mi SSW 15.0 mph - N/A   Mostly Cloudy
8:53 PM 48.9 °F - 46.9 °F 93% 29.96 in 8.0 mi SSW 12.7 mph - N/A   Overcast
9:32 PM 48.2 °F - 48.2 °F 100% 29.96 in 9.0 mi SSW 16.1 mph - N/A   Mostly Cloudy
9:49 PM 48.2 °F - 48.2 °F 100% 29.96 in 9.0 mi SSW 12.7 mph - N/A   Scattered Clouds
9:53 PM 48.9 °F - 48.0 °F 97% 29.96 in 9.0 mi SSW 16.1 mph - N/A   Scattered Clouds
10:53 PM 50.0 °F - 48.9 °F 96% 29.98 in 8.0 mi SW 11.5 mph - N/A   Overcast
11:53 PM 48.9 °F - 48.0 °F 97% 29.98 in 6.0 mi SSW 12.7 mph - N/A   Overcast